Location: Bannatyne
(13.0833°N, 59.5333°W)
Time: 05:37:39
(UTC+00:00)

deb Explorer IX - Pass Details

Date: 24 January 2020
Orbit: 549 x 1099 km, 38.8° (Epoch: 19 February)

Event Time Altitude Azimuth Distance (km) Brightness Sun altitude
Rises 06:38:42 0° 328° (NNW) 3,842 - -53.8°
Reaches altitude 10° 06:43:19 10° 354° (N) 2,805 - -52.8°
Maximum altitude 06:46:21 13° 20° (NNE) 2,505 - -52.0°
Drops below altitude 10° 06:49:15 10° 47° (NE) 2,654 - -51.4°
Exits shadow 06:52:01 - 67° (ENE) 3,147 ? -50.7°
Sets 06:53:21 0° 74° (ENE) 3,466 ? -50.4°
